Location: Rockford
(40.2514°N, 96.6004°W)
Time: 08:31:33
(UTC+00:00)

LightSail 2 - Pass Details

Date: 26 September 2019
Orbit: 707 x 723 km, 24.0° (Epoch: 13 October)

Event Time Altitude Azimuth Distance (km) Brightness Sun altitude
Exits shadow 11:47:14 - 232° (SW) 2,807 7.7 -6.6°
Reaches altitude 10° 11:50:43 10° 202° (SSW) 2,160 7.4 -6.0°
Maximum altitude 11:51:56 11° 188° (S) 2,105 7.5 -5.7°
Drops below altitude 10° 11:53:10 10° 174° (S) 2,160 7.7 -5.5°
Sets 11:57:39 0° 138° (SE) 3,079 9.1 -4.7°
